Location: La Tine
(46.4708°N, 7.0525°E)
Time: 11:27:06
(UTC+00:00)

CREW DRAGON DEMO-1 DEB - Pass Details

Date: 18 September 2020
Orbit: 361 x 364 km, 51.6° (Epoch: 25 October)

Event Time Altitude Azimuth Distance (km) Brightness Sun altitude
Rises 18:31:05 0° 281° (W) 2,196 9.1 -10.1°
Reaches altitude 10° 18:33:16 10° 293° (WNW) 1,351 7.2 -10.5°
Maximum altitude 18:35:58 29° 356° (N) 701 4.4 -10.9°
Enters shadow 18:38:30 11° 58° (ENE) 1,290 5.1 -11.3°
